Weather Roundup
Issued by NWS Springfield, MO

Home | Current Version | Previous Version | Text Only | Print | Product List | Glossary On
Versions: 1 2 3 4 5 6 7 8 9 10 11 12 13 14 15 16 17 18 19 20 21 22 23 24 25 26 27 28 29 30 31 32 33 34 35 36 37 38 39 40 41 42 43 44 45 46 47 48 49 50
000
NZUS99 KSGF 072259
HRRSGF

HOURLY WEATHER
NATIONAL WEATHER SERVICE SPRINGFIELD MO
600 PM CDT TUE JUL 07 2015

......SGF CWA......

CITY           SKY/WX    TMP DP  RH WIND       PRES   REMARKS
SPRINGFIELD    CLOUDY    67  66  97 N9        30.01S FOG
JOPLIN         LGT RAIN  65  63  93 N8        30.02F FOG
WEST PLAINS    CLOUDY    74  70  87 W5        30.01R
ROLLA          LGT RAIN  65  64  97 N5        30.01S FOG
OSAGE BEACH    CLOUDY    66  63  88 NE9       30.03S
BRANSON        LGT RAIN  72  72 100 CALM      30.01S

......SURROUNDING SGF CWA......

CITY           SKY/WX    TMP DP  RH WIND       PRES   REMARKS
CHANUTE        LGT RAIN  64  62  93 NE9       30.05S FOG
PARSONS        CLOUDY    66  64  93 N6        30.04F FOG
COFFEYVILLE    LGT RAIN  66  63  90 N12       30.01F FOG
EMPORIA        CLOUDY    69  57  65 N10       30.06S
SILOAM SPRINGS CLOUDY    73  68  83 S5        30.00R
HARRISON AR    CLOUDY    74  72  93 SE3       30.01S
NEAR YELLVILLE CLOUDY    75  72  88 CALM      29.96F

......KANSAS AND MISSOURI......

CITY           SKY/WX    TMP DP  RH WIND       PRES   REMARKS
KANSAS CTY INT CLOUDY    71  59  65 NE9       30.05S
DOWNTOWN KC    LGT RAIN  72  60  66 NE7       30.04S
COLUMBIA       LGT RAIN  68  65  90 E5        30.03S FOG
SEDALIA        HVY RAIN  68  64  87 CALM      30.05S VSB 1
ST JOSEPH      CLOUDY    72  57  59 NE7       30.06S
ST LOUIS       LGT RAIN  68  64  87 N10       30.01F
SPIRIT OF STL  LGT RAIN  68  66  93 N6        30.00F FOG
KIRKSVILLE     HVY RAIN  72  58  61 NE10      30.06S
WICHITA        CLOUDY    68  52  56 NE15      30.06F
TOPEKA         LGT RAIN  69  61  75 CALM      30.06F
OLATHE         CLOUDY    70  59  68 NE8       30.04S

......TENNESSEE......

CITY           SKY/WX    TMP DP  RH WIND       PRES   REMARKS
MEMPHIS        PTSUNNY   87  72  60 SW12G21   30.00S HX  93
NASHVILLE      CLOUDY    86  72  62 SW7G16    30.02F HX  92

......ARKANSAS.......

CITY           SKY/WX    TMP DP  RH WIND       PRES   REMARKS
FAYETTEVILLE   LGT RAIN  70  68  93 S5        29.99F
FT SMITH       CLOUDY    76  71  85 E3        29.97F
LITTLE ROCK    PTSUNNY   89  71  55 S9        29.96F HX  95

......OKLAHOMA.......

CITY           SKY/WX    TMP DP  RH WIND       PRES   REMARKS
TULSA          LGT RAIN  68  67  96 N8        29.98R FOG
PONCA CITY     LGT RAIN  67  64  90 NE13      30.01F FOG
MCALESTER      CLOUDY    81  74  79 N6        29.96S
OKLAHOMA CITY  LGT RAIN  67  66  97 NE14      29.98S

......IOWA............

CITY           SKY/WX    TMP DP  RH WIND       PRES   REMARKS
DES MOINES     PTSUNNY   73  50  44 N6        30.08S
QUAD CITIES    MOSUNNY   73  54  51 NE8       30.04F HAZE

......ILLINOIS........

CITY           SKY/WX    TMP DP  RH WIND       PRES   REMARKS
QUINCY         PTSUNNY   72  59  63 NE12      30.03S HAZE
CHICAGO        MOSUNNY   63  47  55 NE14      30.06S




USA.gov is the U.S. government's official web portal to all federal, state and local government web resources and services.